Wind_Speed
6 6 6 6 5 5 4 4 4 3 3 3 3 4 4 5 5 6 6 6 6 6 5 5 4 3 3 2 3 3 4 4 4 4 5 5 6 6 6 6 7 7 7
8 7 8 7 7 6 5 4 4 4 4 4 4 4 5 5 6 6 7 7 7 7 7 6 5 5 4 3 3 3 4 5 5 5 5 5 6 6 7 7 7 7 8
10 9 8 8 8 8 7 6 5 5 5 5 5 5 5 5 5 6 7 7 8 8 8 7 7 7 6 5 4 4 5 5 6 6 6 6 6 6 7 7 7 8 8
10 10 10 10 9 9 8 8 7 6 7 6 6 6 6 6 7 7 7 7 8 8 8 8 8 8 7 7 6 6 6 6 6 7 7 7 6 7 8 8 8 9 9
12 12 11 11 11 10 10 9 8 8 7 8 7 7 7 7 7 7 7 7 8 9 9 9 9 9 9 8 8 8 8 8 8 8 8 9 8 8 9 10 10 10 10
13 13 13 12 11 11 11 11 10 9 8 8 8 8 8 8 8 8 7 8 9 9 10 10 10 10 10 10 10 10 10 9 9 9 10 10 10 11 11 11 12 12 12
14 13 13 12 11 12 12 12 11 10 10 9 9 9 9 9 9 9 9 9 10 10 11 11 11 11 11 11 11 11 11 11 11 11 11 11 12 12 12 13 13 14 13
15 14 13 13 12 13 14 13 12 11 11 10 10 10 10 10 10 9 9 10 10 11 11 11 11 11 12 12 12 12 12 13 13 13 13 12 13 13 13 13 13 13 13
16 14 14 13 13 13 13 14 14 13 12 12 12 11 11 11 11 10 10 11 11 11 11 12 12 12 13 13 13 13 14 14 14 14 14 14 14 14 15 14 14 14 14
17 15 14 14 15 15 15 15 15 15 14 14 13 12 12 11 10 10 10 11 12 12 13 14 14 14 14 14 14 14 15 15 15 16 16 16 16 16 16 16 15 15 15
17 16 15 15 16 16 16 16 15 15 16 15 15 14 13 12 11 11 11 12 13 14 14 15 14 14 15 16 15 16 17 16 16 17 17 17 17 17 17 17 17 16 16
18 18 16 16 16 16 16 17 17 15 16 16 16 16 14 13 12 12 13 13 13 14 15 16 15 16 17 17 17 18 18 18 17 18 19 19 19 18 18 17 17 17 17
18 18 18 17 17 16 15 16 16 16 17 16 15 17 16 15 14 14 14 14 14 14 15 16 16 17 17 18 18 19 19 19 19 18 19 19 19 19 19 18 18 18 17
19 19 20 19 18 17 17 17 16 17 17 17 16 17 17 16 16 15 15 15 15 15 15 16 17 17 18 18 18 19 19 19 19 19 19 19 19 20 20 19 19 19 19
19 19 19 20 19 19 18 17 16 16 17 17 17 18 18 17 17 16 16 16 16 17 17 17 17 17 18 18 18 19 19 19 19 20 20 21 21 21 22 21 21 21 21
19 20 20 19 19 18 18 18 17 16 16 16 17 17 18 18 18 17 17 17 18 17 17 17 17 18 19 19 19 19 20 19 19 20 20 22 22 22 23 23 23 23 22
20 20 21 20 20 20 20 19 18 17 17 17 17 17 17 18 18 18 18 18 17 17 17 18 18 19 19 19 19 20 19 20 20 21 21 22 22 23 24 24 24 24 24
22 22 22 21 21 20 20 20 19 18 18 18 18 18 19 19 19 19 19 18 18 18 18 18 19 19 20 20 20 20 21 21 21 21 22 22 23 24 24 24 24 24 25
23 24 23 22 21 21 20 20 19 19 19 19 19 20 20 20 19 19 19 18 18 18 19 19 20 21 21 21 21 22 22 22 22 22 23 23 23 24 25 26 25 25 25
23 23 23 22 21 21 22 21 20 20 20 19 19 19 19 20 20 20 19 18 18 18 19 20 20 21 22 22 23 23 23 23 23 23 24 24 24 25 26 26 26 26 26
23 22 22 21 21 22 22 21 21 20 20 20 20 20 20 20 21 20 19 19 19 19 19 19 20 21 22 23 24 24 24 25 25 25 25 26 26 26 27 27 27 28 29
23 23 23 22 23 22 22 22 21 21 21 21 21 21 21 21 21 21 20 20 20 21 21 21 21 21 22 22 23 24 24 25 25 26 27 27 27 27 27 27 28 28 29
25 25 25 25 25 24 23 23 22 22 22 22 22 22 21 21 21 21 21 21 21 21 21 22 22 23 23 23 23 24 24 25 25 25 25 26 27 27 27 28 28 28 29
25 25 24 24 24 24 24 23 22 22 22 23 23 22 21 21 22 22 22 23 23 23 23 23 23 24 24 25 25 26 25 25 25 25 26 26 27 28 28 29 29 30 30
23 23 23 22 22 22 22 22 22 22 22 22 23 23 22 22 22 23 24 25 25 25 25 25 26 26 26 26 26 27 27 28 28 28 28 28 28 28 30 32 32 32 33
22 22 22 22 21 21 21 20 21 21 21 22 23 22 22 23 23 24 24 25 25 26 26 27 28 28 28 28 28 29 29 29 30 30 30 30 31 32 33 33 34 35 36
Wind_Direction
258 246 247 257 261 263 262 255 255 253 249 239 242 245 239 231 232 233 234 234 229 230 232 237 248 255 261 265 261 262 259 260 259 264 272 275 276 279 285 293 298 300 303
255 251 248 250 254 253 256 255 258 253 247 243 243 247 246 241 240 243 238 235 234 234 234 233 240 248 261 273 277 269 263 264 260 264 269 275 277 281 285 290 296 301 300
247 247 244 248 251 250 250 249 251 251 251 251 249 250 246 245 244 239 239 236 235 236 237 238 240 243 254 265 271 273 271 269 267 268 272 278 278 280 284 288 294 296 295
247 247 245 247 251 248 244 245 248 248 250 252 251 251 248 247 249 250 248 242 238 237 237 239 242 245 252 260 268 273 277 276 273 273 275 277 278 281 285 287 289 289 287
247 248 246 247 248 244 241 245 250 251 251 250 248 250 248 246 248 247 247 245 241 240 237 240 244 246 252 258 264 268 272 277 275 274 274 273 274 280 284 286 289 289 287
245 245 247 243 246 249 246 249 249 251 252 250 249 251 251 247 246 245 245 246 245 243 242 243 244 246 252 259 266 268 271 275 273 273 275 273 273 278 281 283 285 287 288
240 242 244 244 247 250 248 248 248 248 251 250 250 253 252 248 251 251 250 253 252 251 250 250 251 251 255 262 268 269 271 273 273 272 275 276 275 277 280 282 284 284 284
237 239 241 246 246 249 247 245 247 246 248 249 249 253 253 251 254 258 257 257 256 255 254 254 257 259 261 265 268 270 270 273 274 271 273 276 277 277 279 282 284 283 283
237 239 241 245 246 248 247 245 247 246 247 248 249 252 252 250 254 258 260 260 257 256 258 258 260 263 266 268 270 272 273 273 273 271 272 275 277 277 277 278 280 279 280
237 240 242 243 241 243 244 244 244 245 247 248 250 251 252 251 251 255 260 262 260 259 260 261 264 266 267 269 271 275 276 273 272 271 271 273 277 277 279 278 277 277 278
236 239 243 241 242 245 247 249 246 245 246 245 247 248 251 252 252 253 259 265 265 263 263 264 267 268 269 270 271 277 277 275 273 272 273 275 276 276 278 277 275 275 276
237 240 243 243 242 245 247 248 248 249 245 243 246 248 251 254 255 255 260 265 267 267 266 267 268 270 273 274 276 277 276 277 276 274 272 273 275 276 275 274 274 275 275
241 243 244 243 242 245 250 244 250 249 245 245 248 248 251 253 254 256 260 266 269 269 268 268 269 270 272 275 278 279 279 279 278 276 273 272 272 273 273 273 274 276 276
243 242 242 242 242 244 247 249 250 248 248 248 249 250 252 255 258 261 261 266 269 269 271 272 271 272 275 277 278 279 281 279 278 275 273 273 273 272 273 273 275 276 277
241 242 241 241 243 245 248 249 248 249 248 250 251 250 251 255 259 261 261 265 270 271 270 272 273 274 276 279 279 279 282 280 280 278 275 275 276 274 274 272 274 275 277
237 238 238 239 241 243 245 247 248 248 247 247 251 253 251 255 258 261 263 267 270 272 273 274 275 276 277 278 280 280 280 282 284 282 278 275 275 275 275 273 274 274 276
238 239 240 241 241 243 246 246 245 246 247 250 255 256 256 257 260 262 267 269 270 272 273 274 276 278 278 279 282 280 280 283 283 282 280 277 276 275 275 275 274 274 276
238 241 244 242 242 244 247 248 249 249 249 250 255 257 257 259 262 263 266 269 270 270 273 277 277 276 276 278 280 283 282 284 284 283 281 279 278 274 274 274 274 275 276
241 244 244 244 243 246 250 251 252 251 251 252 255 257 258 260 262 262 263 266 269 271 274 280 279 276 274 275 278 281 281 282 283 283 282 280 279 276 273 272 273 274 274
243 246 245 246 250 253 255 257 259 256 253 253 255 256 258 259 262 262 265 267 270 274 276 278 280 277 275 275 277 279 280 281 282 282 280 279 279 277 274 273 273 273 273
243 245 245 248 250 253 256 258 260 258 258 255 253 254 258 260 260 261 265 267 271 274 276 278 280 280 278 277 278 280 280 280 279 281 281 280 279 278 276 274 275 275 273
242 246 247 248 249 253 255 257 258 259 259 257 255 256 257 258 259 263 264 267 272 275 275 277 279 280 282 282 282 284 284 283 282 282 282 281 280 277 276 277 278 277 277
242 246 248 249 251 251 253 254 256 258 260 259 257 258 258 258 259 262 264 268 271 273 274 276 278 280 281 282 282 284 285 285 285 285 283 281 280 278 277 276 277 278 279
243 247 250 251 249 248 251 254 255 259 261 260 259 260 261 262 262 264 266 269 270 271 272 274 276 279 280 281 282 284 285 285 285 284 282 281 280 279 277 276 277 278 280
242 245 247 249 248 248 252 254 255 260 262 260 259 259 260 262 264 265 267 269 270 271 272 274 275 277 279 280 282 284 285 286 285 284 283 281 278 277 278 278 278 280 281
242 243 245 247 248 250 254 256 258 262 263 264 262 259 261 263 265 267 269 269 270 271 274 276 277 278 277 279 281 283 283 284 285 284 283 281 280 279 279 280 280 281 282
Height
5889 5890 5891 5891 5891 5891 5891 5892 5892 5892 5892 5892 5892 5893 5893 5893 5893 5894 5894 5895 5895 5896 5896 5897 5897 5898 5898 5898 5898 5899 5899 5899 5899 5899 5899 5899 5899 5899 5899 5898 5898 5898 5897
5888 5888 5889 5889 5890 5890 5891 5891 5891 5891 5891 5892 5892 5892 5892 5892 5892 5893 5893 5894 5894 5895 5895 5896 5897 5897 5897 5897 5897 5898 5898 5898 5898 5898 5898 5898 5899 5898 5898 5897 5897 5896 5896
5885 5886 5887 5888 5888 5889 5889 5890 5890 5890 5890 5891 5891 5891 5891 5891 5891 5892 5892 5892 5893 5893 5894 5895 5895 5896 5896 5897 5897 5897 5897 5897 5897 5897 5897 5897 5897 5897 5897 5896 5896 5895 5894
5883 5884 5885 5886 5887 5887 5887 5888 5888 5889 5889 5889 5890 5890 5890 5890 5890 5890 5891 5891 5891 5892 5893 5893 5894 5894 5895 5895 5895 5895 5895 5896 5895 5895 5895 5896 5895 5895 5895 5895 5894 5893 5893
5880 5881 5882 5883 5884 5885 5885 5886 5887 5887 5887 5888 5888 5889 5888 5888 5889 5889 5889 5890 5890 5890 5891 5892 5892 5893 5893 5894 5894 5894 5894 5894 5894 5894 5894 5894 5893 5893 5893 5893 5892 5891 5891
5877 5878 5879 5880 5882 5883 5883 5884 5885 5885 5886 5886 5887 5887 5887 5887 5887 5887 5888 5888 5889 5889 5889 5890 5890 5891 5891 5892 5892 5892 5892 5892 5892 5892 5892 5892 5891 5891 5891 5890 5890 5889 5888
5874 5876 5877 5878 5879 5880 5881 5882 5882 5883 5884 5884 5885 5885 5885 5885 5885 5886 5886 5887 5887 5887 5888 5888 5889 5889 5889 5890 5890 5890 5890 5890 5890 5890 5890 5889 5889 5889 5888 5888 5887 5886 5886
5871 5872 5874 5875 5876 5877 5878 5879 5880 5881 5881 5882 5883 5883 5883 5883 5884 5884 5885 5885 5885 5885 5886 5886 5887 5887 5887 5887 5887 5887 5887 5887 5887 5887 5887 5887 5886 5886 5886 5885 5885 5884 5883
5867 5869 5870 5872 5873 5873 5875 5875 5876 5877 5879 5880 5880 5881 5881 5881 5882 5882 5882 5883 5883 5884 5884 5884 5884 5885 5884 5884 5885 5884 5884 5884 5884 5884 5884 5884 5883 5883 5882 5882 5882 5881 5881
5864 5865 5867 5868 5869 5869 5871 5871 5872 5874 5875 5877 5878 5878 5879 5879 5879 5880 5880 5881 5881 5881 5881 5882 5882 5882 5882 5882 5881 5881 5881 5881 5881 5881 5881 5880 5880 5880 5879 5878 5878 5878 5878
5861 5862 5864 5865 5865 5866 5867 5867 5868 5870 5872 5873 5874 5875 5876 5877 5877 5877 5878 5878 5878 5878 5878 5879 5879 5878 5878 5878 5878 5878 5877 5877 5877 5877 5877 5877 5876 5876 5875 5875 5875 5874 5874
5857 5859 5860 5861 5862 5863 5864 5864 5866 5867 5868 5869 5870 5872 5873 5874 5874 5874 5875 5875 5875 5875 5875 5875 5875 5875 5875 5874 5874 5874 5873 5873 5873 5872 5872 5872 5872 5872 5871 5871 5871 5870 5870
5853 5855 5856 5858 5859 5860 5860 5861 5862 5863 5864 5865 5867 5868 5870 5870 5870 5871 5871 5871 5871 5871 5871 5871 5871 5871 5871 5871 5870 5870 5869 5869 5868 5868 5868 5867 5867 5867 5867 5867 5867 5866 5866
5848 5850 5852 5854 5855 5857 5857 5858 5858 5860 5861 5861 5863 5864 5866 5866 5867 5867 5868 5868 5868 5867 5867 5867 5867 5867 5867 5867 5866 5865 5864 5864 5863 5863 5863 5863 5862 5862 5862 5862 5862 5862 5861
5844 5846 5848 5850 5851 5853 5854 5855 5856 5857 5857 5858 5860 5861 5861 5862 5863 5863 5863 5863 5864 5864 5863 5863 5863 5863 5863 5862 5861 5861 5860 5859 5858 5858 5858 5858 5858 5857 5857 5857 5857 5857 5856
5840 5842 5844 5846 5847 5849 5850 5851 5852 5853 5853 5854 5856 5856 5856 5857 5858 5859 5859 5859 5859 5859 5859 5859 5859 5859 5858 5858 5857 5856 5855 5854 5853 5853 5852 5852 5852 5852 5852 5851 5851 5851 5851
5836 5838 5840 5841 5843 5844 5845 5846 5847 5848 5849 5850 5851 5851 5852 5853 5854 5854 5855 5855 5855 5855 5855 5855 5855 5854 5853 5853 5852 5851 5850 5849 5848 5848 5847 5847 5846 5846 5846 5846 5846 5845 5845
5831 5833 5835 5837 5838 5839 5840 5841 5843 5843 5844 5845 5846 5847 5848 5849 5849 5850 5850 5850 5850 5850 5850 5850 5849 5849 5848 5848 5847 5846 5845 5844 5843 5842 5842 5841 5841 5840 5840 5840 5839 5839 5839
5826 5828 5830 5832 5833 5835 5836 5837 5838 5838 5839 5839 5841 5842 5843 5844 5845 5845 5845 5845 5845 5845 5845 5845 5844 5843 5843 5842 5842 5841 5840 5839 5838 5837 5836 5835 5834 5834 5833 5833 5833 5832 5832
5821 5823 5825 5826 5828 5830 5831 5832 5833 5833 5834 5835 5836 5837 5838 5839 5839 5840 5840 5841 5840 5840 5840 5839 5839 5838 5837 5837 5836 5835 5835 5834 5833 5831 5830 5829 5828 5827 5826 5825 5825 5825 5825
5815 5818 5820 5821 5823 5825 5826 5827 5828 5828 5829 5829 5831 5832 5832 5833 5834 5834 5835 5835 5835 5835 5834 5834 5833 5832 5831 5831 5830 5829 5828 5827 5826 5825 5823 5822 5820 5820 5819 5818 5818 5818 5817
5810 5812 5814 5816 5818 5819 5821 5822 5822 5823 5824 5824 5825 5826 5827 5828 5828 5829 5829 5829 5829 5829 5829 5828 5828 5827 5826 5825 5824 5823 5822 5820 5819 5818 5816 5815 5813 5812 5811 5811 5811 5810 5809
5804 5806 5809 5810 5812 5813 5815 5816 5817 5818 5818 5819 5819 5821 5821 5822 5823 5823 5823 5823 5823 5823 5823 5822 5822 5821 5820 5819 5818 5817 5815 5813 5812 5811 5809 5808 5807 5805 5804 5804 5803 5802 5801
5798 5800 5802 5804 5806 5807 5809 5810 5811 5812 5812 5813 5814 5815 5816 5816 5817 5817 5817 5817 5817 5817 5817 5816 5816 5815 5814 5813 5811 5810 5808 5807 5805 5804 5802 5801 5799 5798 5797 5796 5795 5794 5793
5792 5794 5796 5798 5800 5802 5803 5804 5805 5806 5806 5807 5808 5809 5810 5810 5811 5811 5811 5810 5810 5810 5810 5809 5809 5808 5807 5806 5804 5802 5801 5799 5798 5796 5795 5793 5792 5791 5789 5788 5787 5786 5785
5787 5789 5791 5793 5795 5796 5797 5798 5799 5800 5800 5801 5801 5802 5803 5804 5804 5804 5804 5803 5803 5803 5802 5802 5801 5800 5799 5798 5797 5795 5793 5792 5790 5789 5787 5786 5784 5783 5781 5780 5778 5777 5775